Location: ?????
(31.8092°N, 35.2590°E)
Time: 20:35:57
(UTC+00:00)

Cosmos 1455 Rocket - Pass Details

Date: 23 October 2021
Orbit: 604 x 630 km, 82.5° (Epoch: 04 December)

Event Time Altitude Azimuth Distance (km) Brightness Sun altitude
Rises 02:42:08 0° 355° (N) 2,919 6.4 -14.7°
Reaches altitude 10° 02:44:23 10° 357° (N) 2,006 5.6 -14.2°
Maximum altitude 02:48:50 78° 84° (E) 641 3.2 -13.3°
Drops below altitude 10° 02:53:13 10° 170° (S) 1,979 5.8 -12.3°
Sets 02:55:26 0° 172° (S) 2,876 6.7 -11.9°
